"Time","Value","Approval","myLocation"
"2023-05-07 00:00",22.6658001487849,"Approved","OW236"
"2023-05-07 01:00",22.6687967641055,"Approved","OW236"
"2023-05-07 02:00",22.6607933794261,"Approved","OW236"
"2023-05-07 03:00",22.6727899947467,"Approved","OW236"
"2023-05-07 04:00",22.6777866100673,"Approved","OW236"
"2023-05-07 05:00",22.6787832253879,"Approved","OW236"
"2023-05-07 06:00",22.6807798407085,"Approved","OW236"
"2023-05-07 07:00",22.6827764560291,"Approved","OW236"
"2023-05-07 08:00",22.6817730713497,"Approved","OW236"
"2023-05-07 09:00",22.6807696866704,"Approved","OW236"
"2023-05-07 10:00",22.680766301991,"Approved","OW236"
"2023-05-07 11:00",22.6807629173116,"Approved","OW236"
"2023-05-07 12:00",22.6807595326322,"Approved","OW236"
"2023-05-07 13:00",22.6797561479528,"Approved","OW236"
"2023-05-07 14:00",22.6817527632734,"Approved","OW236"
"2023-05-07 15:00",22.682749378594,"Approved","OW236"
"2023-05-07 16:00",22.6827459939146,"Approved","OW236"
"2023-05-07 17:00",22.6817426092352,"Approved","OW236"
"2023-05-07 18:00",22.6787392245558,"Approved","OW236"
"2023-05-07 19:00",22.6727358398765,"Approved","OW236"
"2023-05-07 20:00",22.6747324551971,"Approved","OW236"
"2023-05-07 21:00",22.6627290705177,"Approved","OW236"
"2023-05-07 22:00",22.6727256858383,"Approved","OW236"
"2023-05-07 23:00",22.6717223011589,"Approved","OW236"
"2023-05-08 00:00",22.6697189164795,"Approved","OW236"
"2023-05-08 01:00",22.6687155318001,"Approved","OW236"
"2023-05-08 02:00",22.6597121471207,"Approved","OW236"
"2023-05-08 03:00",22.6687087624413,"Approved","OW236"
"2023-05-08 04:00",22.672705377762,"Approved","OW236"
"2023-05-08 05:00",22.6757019930826,"Approved","OW236"
"2023-05-08 06:00",22.6766986084032,"Approved","OW236"
"2023-05-08 07:00",22.6776952237238,"Approved","OW236"
"2023-05-08 08:00",22.6676918390444,"Approved","OW236"
"2023-05-08 09:00",22.676688454365,"Approved","OW236"
"2023-05-08 10:00",22.6766850696856,"Approved","OW236"
"2023-05-08 11:00",22.6676816850062,"Approved","OW236"
"2023-05-08 12:00",22.6766783003268,"Approved","OW236"
"2023-05-08 13:00",22.6776749156474,"Approved","OW236"
"2023-05-08 14:00",22.6796715309681,"Approved","OW236"
"2023-05-08 15:00",22.6806681462887,"Approved","OW236"
"2023-05-08 16:00",22.6656647616093,"Approved","OW236"
"2023-05-08 17:00",22.6736613769299,"Approved","OW236"
"2023-05-08 18:00",22.6696579922505,"Approved","OW236"
"2023-05-08 19:00",22.6536546075711,"Approved","OW236"
"2023-05-08 20:00",22.6486512228917,"Approved","OW236"
"2023-05-08 21:00",22.6496478382123,"Approved","OW236"
"2023-05-08 22:00",22.6456444535329,"Approved","OW236"
"2023-05-08 23:00",22.6456410688535,"Approved","OW236"
"2023-05-09 00:00",22.6526376841742,"Approved","OW236"
"2023-05-09 01:00",22.6536342994948,"Approved","OW236"
"2023-05-09 02:00",22.6536309148154,"Approved","OW236"
"2023-05-09 03:00",22.656627530136,"Approved","OW236"
"2023-05-09 04:00",22.6616241454566,"Approved","OW236"
"2023-05-09 05:00",22.6656207607772,"Approved","OW236"
"2023-05-09 06:00",22.6686173760978,"Approved","OW236"
"2023-05-09 07:00",22.6706139914184,"Approved","OW236"
"2023-05-09 08:00",22.666610606739,"Approved","OW236"
"2023-05-09 09:00",22.6726072220596,"Approved","OW236"
"2023-05-09 10:00",22.6796038373803,"Approved","OW236"
"2023-05-09 11:00",22.6826004527009,"Approved","OW236"
"2023-05-09 12:00",22.6825970680215,"Approved","OW236"
"2023-05-09 13:00",22.6895936833421,"Approved","OW236"
"2023-05-09 14:00",22.6915902986627,"Approved","OW236"
"2023-05-09 15:00",22.6945869139833,"Approved","OW236"
"2023-05-09 16:00",22.6915835293039,"Approved","OW236"
"2023-05-09 17:00",22.6865801446245,"Approved","OW236"
"2023-05-09 18:00",22.6805767599451,"Approved","OW236"
"2023-05-09 19:00",22.6755733752657,"Approved","OW236"
"2023-05-09 20:00",22.6725699905864,"Approved","OW236"
"2023-05-09 21:00",22.664566605907,"Approved","OW236"
"2023-05-09 22:00",22.6565632212276,"Approved","OW236"
"2023-05-09 23:00",22.6595598365482,"Approved","OW236"
"2023-05-10 00:00",22.6545564518688,"Approved","OW236"
"2023-05-10 01:00",22.6565530671894,"Approved","OW236"
"2023-05-10 02:00",22.65854968251,"Approved","OW236"
"2023-05-10 03:00",22.6545462978306,"Approved","OW236"
"2023-05-10 04:00",22.6725429131512,"Approved","OW236"
"2023-05-10 05:00",22.6785395284719,"Approved","OW236"
"2023-05-10 06:00",22.6755361437925,"Approved","OW236"
"2023-05-10 07:00",22.6835327591131,"Approved","OW236"
"2023-05-10 08:00",22.6835293744337,"Approved","OW236"
"2023-05-10 09:00",22.6845259897543,"Approved","OW236"
"2023-05-10 10:00",22.6845226050749,"Approved","OW236"
"2023-05-10 11:00",22.6865192203955,"Approved","OW236"
"2023-05-10 12:00",22.6905158357161,"Approved","OW236"
"2023-05-10 13:00",22.6925124510367,"Approved","OW236"
"2023-05-10 14:00",22.6865090663573,"Approved","OW236"
"2023-05-10 15:00",22.695505681678,"Approved","OW236"
"2023-05-10 16:00",22.6815022969986,"Approved","OW236"
"2023-05-10 17:00",22.6844989123192,"Approved","OW236"
"2023-05-10 18:00",22.6804955276398,"Approved","OW236"
"2023-05-10 19:00",22.6744921429604,"Approved","OW236"
"2023-05-10 20:00",22.668488758281,"Approved","OW236"
"2023-05-10 21:00",22.6654853736016,"Approved","OW236"
"2023-05-10 22:00",22.6624819889222,"Approved","OW236"
"2023-05-10 23:00",22.6594786042428,"Approved","OW236"
"2023-05-11 00:00",22.6604752195634,"Approved","OW236"
"2023-05-11 01:00",22.6634718348841,"Approved","OW236"
"2023-05-11 02:00",22.6594684502047,"Approved","OW236"
"2023-05-11 03:00",22.6644650655253,"Approved","OW236"
"2023-05-11 04:00",22.6684616808459,"Approved","OW236"
"2023-05-11 05:00",22.6674582961665,"Approved","OW236"
"2023-05-11 06:00",22.6684549114871,"Approved","OW236"
"2023-05-11 07:00",22.6804515268077,"Approved","OW236"
"2023-05-11 08:00",22.6884481421283,"Approved","OW236"
"2023-05-11 09:00",22.6924447574489,"Approved","OW236"
"2023-05-11 10:00",22.6934413727695,"Approved","OW236"
"2023-05-11 11:00",22.6954379880902,"Approved","OW236"
"2023-05-11 12:00",22.6984346034108,"Approved","OW236"
"2023-05-11 13:00",22.7034312187314,"Approved","OW236"
"2023-05-11 14:00",22.708427834052,"Approved","OW236"
"2023-05-11 15:00",22.7004244493726,"Approved","OW236"
"2023-05-11 16:00",22.6984210646932,"Approved","OW236"
"2023-05-11 17:00",22.7014176800138,"Approved","OW236"
"2023-05-11 18:00",22.6964142953344,"Approved","OW236"
"2023-05-11 19:00",22.693410910655,"Approved","OW236"
"2023-05-11 20:00",22.6874075259757,"Approved","OW236"
"2023-05-11 21:00",22.6804041412963,"Approved","OW236"
"2023-05-11 22:00",22.6734007566169,"Approved","OW236"
"2023-05-11 23:00",22.6703973719375,"Approved","OW236"
"2023-05-12 00:00",22.6673939872581,"Approved","OW236"
"2023-05-12 01:00",22.6663906025787,"Approved","OW236"
"2023-05-12 02:00",22.6673872178993,"Approved","OW236"
"2023-05-12 03:00",22.6713838332199,"Approved","OW236"
"2023-05-12 04:00",22.6793804485405,"Approved","OW236"
"2023-05-12 05:00",22.6873770638611,"Approved","OW236"
"2023-05-12 06:00",22.6953736791818,"Approved","OW236"
"2023-05-12 07:00",22.7013702945024,"Approved","OW236"
"2023-05-12 08:00",22.709366909823,"Approved","OW236"
"2023-05-12 09:00",22.7063635251436,"Approved","OW236"
"2023-05-12 10:00",22.7183601404642,"Approved","OW236"
"2023-05-12 11:00",22.7263567557848,"Approved","OW236"
"2023-05-12 12:00",22.7313533711054,"Approved","OW236"
"2023-05-12 13:00",22.736349986426,"Approved","OW236"
"2023-05-12 14:00",22.7443466017466,"Approved","OW236"
"2023-05-12 15:00",22.7473432170672,"Approved","OW236"
"2023-05-12 16:00",22.7323398323879,"Approved","OW236"
"2023-05-12 17:00",22.7423364477085,"Approved","OW236"
"2023-05-12 18:00",22.7363330630291,"Approved","OW236"
"2023-05-12 19:00",22.7303296783497,"Approved","OW236"
"2023-05-12 20:00",22.7263262936703,"Approved","OW236"
"2023-05-12 21:00",22.7193229089909,"Approved","OW236"
"2023-05-12 22:00",22.7133195243115,"Approved","OW236"
"2023-05-12 23:00",22.7053161396321,"Approved","OW236"
"2023-05-13 00:00",22.6983127549527,"Approved","OW236"
"2023-05-13 01:00",22.6963093702733,"Approved","OW236"
"2023-05-13 02:00",22.695305985594,"Approved","OW236"
"2023-05-13 03:00",22.6973026009146,"Approved","OW236"
"2023-05-13 04:00",22.7012992162352,"Approved","OW236"
"2023-05-13 05:00",22.7102958315558,"Approved","OW236"
"2023-05-13 06:00",22.7142924468764,"Approved","OW236"
"2023-05-13 07:00",22.718289062197,"Approved","OW236"
"2023-05-13 08:00",22.7142856775176,"Approved","OW236"
"2023-05-13 09:00",22.7302822928382,"Approved","OW236"
"2023-05-13 10:00",22.7342789081588,"Approved","OW236"
"2023-05-13 11:00",22.7382755234795,"Approved","OW236"
"2023-05-13 12:00",22.7422721388001,"Approved","OW236"
"2023-05-13 13:00",22.7472687541207,"Approved","OW236"
"2023-05-13 14:00",22.7492653694413,"Approved","OW236"
"2023-05-13 15:00",22.7402619847619,"Approved","OW236"
"2023-05-13 16:00",22.7482586000825,"Approved","OW236"
"2023-05-13 17:00",22.7412552154031,"Approved","OW236"
"2023-05-13 18:00",22.7382518307237,"Approved","OW236"
"2023-05-13 19:00",22.7312484460443,"Approved","OW236"
"2023-05-13 20:00",22.7212450613649,"Approved","OW236"
"2023-05-13 21:00",22.7142416766856,"Approved","OW236"
"2023-05-13 22:00",22.7062382920062,"Approved","OW236"
"2023-05-13 23:00",22.6952349073268,"Approved","OW236"
"2023-05-14 00:00",22.6892315226474,"Approved","OW236"
"2023-05-14 01:00",22.681228137968,"Approved","OW236"
"2023-05-14 02:00",22.6792247532886,"Approved","OW236"
"2023-05-14 03:00",22.6692213686092,"Approved","OW236"
"2023-05-14 04:00",22.6852179839298,"Approved","OW236"
"2023-05-14 05:00",22.6912145992504,"Approved","OW236"
"2023-05-14 06:00",22.693211214571,"Approved","OW236"
"2023-05-14 07:00",22.6972078298917,"Approved","OW236"
"2023-05-14 08:00",22.9862044452123,"Approved","OW236"
"2023-05-14 09:00",23.0682010605329,"Approved","OW236"
"2023-05-14 10:00",23.0851976758535,"Approved","OW236"
"2023-05-14 11:00",23.0961942911741,"Approved","OW236"
"2023-05-14 12:00",23.1031909064947,"Approved","OW236"
"2023-05-14 13:00",23.1111875218153,"Approved","OW236"
"2023-05-14 14:00",22.7681841371359,"Approved","OW236"
"2023-05-14 15:00",22.7361807524565,"Approved","OW236"
"2023-05-14 16:00",22.7301773677771,"Approved","OW236"
"2023-05-14 17:00",22.7181739830978,"Approved","OW236"
"2023-05-14 18:00",22.7061705984184,"Approved","OW236"
"2023-05-14 19:00",22.693167213739,"Approved","OW236"
"2023-05-14 20:00",22.6701638290596,"Approved","OW236"
"2023-05-14 21:00",22.6731604443802,"Approved","OW236"
"2023-05-14 22:00",22.6641570597008,"Approved","OW236"
"2023-05-14 23:00",22.6571536750214,"Approved","OW236"
"2023-05-15 00:00",22.649150290342,"Approved","OW236"
"2023-05-15 01:00",22.6451469056626,"Approved","OW236"
"2023-05-15 02:00",22.6411435209832,"Approved","OW236"
"2023-05-15 03:00",22.6341401363039,"Approved","OW236"
"2023-05-15 04:00",22.6541367516245,"Approved","OW236"
"2023-05-15 05:00",23.0071333669451,"Approved","OW236"
"2023-05-15 06:00",23.0501299822657,"Approved","OW236"
"2023-05-15 07:00",23.0651265975863,"Approved","OW236"
"2023-05-15 08:00",23.0691232129069,"Approved","OW236"
"2023-05-15 09:00",22.7601198282275,"Approved","OW236"
"2023-05-15 10:00",22.7101164435481,"Approved","OW236"
"2023-05-15 11:00",22.7031130588687,"Approved","OW236"
"2023-05-15 12:00",22.6991096741894,"Approved","OW236"
"2023-05-15 13:00",22.69110628951,"Approved","OW236"
"2023-05-15 14:00",22.6971029048306,"Approved","OW236"
"2023-05-15 15:00",22.6830995201512,"Approved","OW236"
"2023-05-15 16:00",22.6820961354718,"Approved","OW236"
"2023-05-15 17:00",22.6790927507924,"Approved","OW236"
"2023-05-15 18:00",22.671089366113,"Approved","OW236"
"2023-05-15 19:00",22.6630859814336,"Approved","OW236"
"2023-05-15 20:00",22.6550825967542,"Approved","OW236"
"2023-05-15 21:00",22.6480792120748,"Approved","OW236"
"2023-05-15 22:00",22.6420758273955,"Approved","OW236"
"2023-05-15 23:00",22.6330724427161,"Approved","OW236"
"2023-05-16 00:00",22.6260690580367,"Approved","OW236"
"2023-05-16 01:00",22.6240656733573,"Approved","OW236"
"2023-05-16 02:00",22.6260622886779,"Approved","OW236"
"2023-05-16 03:00",22.6330589039985,"Approved","OW236"
"2023-05-16 04:00",22.6420555193191,"Approved","OW236"
"2023-05-16 05:00",22.6470521346397,"Approved","OW236"
"2023-05-16 06:00",22.6510487499603,"Approved","OW236"
"2023-05-16 07:00",22.6540453652809,"Approved","OW236"
"2023-05-16 08:00",22.6570419806016,"Approved","OW236"
"2023-05-16 09:00",22.6620385959222,"Approved","OW236"
"2023-05-16 10:00",22.6640352112428,"Approved","OW236"
"2023-05-16 11:00",22.6770318265634,"Approved","OW236"
"2023-05-16 12:00",23.038028441884,"Approved","OW236"
"2023-05-16 13:00",23.0770250572046,"Approved","OW236"
"2023-05-16 14:00",23.0970216725252,"Approved","OW236"
"2023-05-16 15:00",23.1110182878458,"Approved","OW236"
"2023-05-16 16:00",23.1050149031664,"Approved","OW236"
"2023-05-16 17:00",22.827011518487,"Approved","OW236"
"2023-05-16 18:00",22.7520081338077,"Approved","OW236"
"2023-05-16 19:00",22.7320047491283,"Approved","OW236"
"2023-05-16 20:00",22.7280013644489,"Approved","OW236"
"2023-05-16 21:00",22.7079979797695,"Approved","OW236"
"2023-05-16 22:00",22.7099945950901,"Approved","OW236"
"2023-05-16 23:00",22.7039912104107,"Approved","OW236"
"2023-05-17 00:00",22.7009878257313,"Approved","OW236"
"2023-05-17 01:00",22.7039844410519,"Approved","OW236"
"2023-05-17 02:00",22.7049810563725,"Approved","OW236"
"2023-05-17 03:00",22.7099776716931,"Approved","OW236"
"2023-05-17 04:00",22.7169742870138,"Approved","OW236"
"2023-05-17 05:00",22.7189709023344,"Approved","OW236"
"2023-05-17 06:00",22.720967517655,"Approved","OW236"
"2023-05-17 07:00",22.7209641329756,"Approved","OW236"
"2023-05-17 08:00",22.7249607482962,"Approved","OW236"
"2023-05-17 09:00",22.7259573636168,"Approved","OW236"
"2023-05-17 10:00",23.0939539789374,"Approved","OW236"
"2023-05-17 11:00",23.115950594258,"Approved","OW236"
"2023-05-17 12:00",23.1299472095786,"Approved","OW236"
"2023-05-17 13:00",23.1389438248993,"Approved","OW236"
"2023-05-17 14:00",23.1489404402199,"Approved","OW236"
"2023-05-17 15:00",23.1539370555405,"Approved","OW236"
"2023-05-17 16:00",23.1399336708611,"Approved","OW236"
"2023-05-17 17:00",22.8079302861817,"Approved","OW236"
"2023-05-17 18:00",22.7829269015023,"Approved","OW236"
"2023-05-17 19:00",22.7619235168229,"Approved","OW236"
"2023-05-17 20:00",22.7489201321435,"Approved","OW236"
"2023-05-17 21:00",22.7359167474641,"Approved","OW236"
"2023-05-17 22:00",22.7209133627847,"Approved","OW236"
"2023-05-17 23:00",22.7129099781054,"Approved","OW236"
"2023-05-18 00:00",22.700906593426,"Approved","OW236"
"2023-05-18 01:00",22.6969032087466,"Approved","OW236"
"2023-05-18 02:00",22.7038998240672,"Approved","OW236"
"2023-05-18 03:00",22.7068964393878,"Approved","OW236"
"2023-05-18 04:00",22.7098930547084,"Approved","OW236"
"2023-05-18 05:00",22.712889670029,"Approved","OW236"
"2023-05-18 06:00",22.7168862853496,"Approved","OW236"
"2023-05-18 07:00",22.7068829006702,"Approved","OW236"
"2023-05-18 08:00",23.0528795159908,"Approved","OW236"
"2023-05-18 09:00",23.1098761313115,"Approved","OW236"
"2023-05-18 10:00",23.1288727466321,"Approved","OW236"
"2023-05-18 11:00",23.1428693619527,"Approved","OW236"
"2023-05-18 12:00",23.1538659772733,"Approved","OW236"
"2023-05-18 13:00",23.1628625925939,"Approved","OW236"
"2023-05-18 14:00",23.1728592079145,"Approved","OW236"
"2023-05-18 15:00",23.1798558232351,"Approved","OW236"
"2023-05-18 16:00",22.9908524385557,"Approved","OW236"
"2023-05-18 17:00",22.8228490538763,"Approved","OW236"
"2023-05-18 18:00",22.8058456691969,"Approved","OW236"
"2023-05-18 19:00",22.8058422845176,"Approved","OW236"
"2023-05-18 20:00",22.7888388998382,"Approved","OW236"
"2023-05-18 21:00",22.7828355151588,"Approved","OW236"
"2023-05-18 22:00",22.7618321304794,"Approved","OW236"
"2023-05-18 23:00",22.7438287458,"Approved","OW236"
"2023-05-19 00:00",22.7348253611206,"Approved","OW236"
"2023-05-19 01:00",22.7508219764412,"Approved","OW236"
"2023-05-19 02:00",22.7518185917618,"Approved","OW236"
"2023-05-19 03:00",22.7688152070824,"Approved","OW236"
"2023-05-19 04:00",22.7798118224031,"Approved","OW236"
"2023-05-19 05:00",22.7848084377237,"Approved","OW236"
"2023-05-19 06:00",22.7898050530443,"Approved","OW236"
"2023-05-19 07:00",22.7928016683649,"Approved","OW236"
"2023-05-19 08:00",22.7967982836855,"Approved","OW236"
"2023-05-19 09:00",22.8007948990061,"Approved","OW236"
"2023-05-19 10:00",23.1687915143267,"Approved","OW236"
"2023-05-19 11:00",23.1907881296473,"Approved","OW236"
"2023-05-19 12:00",23.1947847449679,"Approved","OW236"
"2023-05-19 13:00",23.2127813602885,"Approved","OW236"
"2023-05-19 14:00",23.2197779756092,"Approved","OW236"
"2023-05-19 15:00",23.2187745909298,"Approved","OW236"
"2023-05-19 16:00",23.2157712062504,"Approved","OW236"
"2023-05-19 17:00",22.878767821571,"Approved","OW236"
"2023-05-19 18:00",22.8427644368916,"Approved","OW236"
"2023-05-19 19:00",22.8237610522122,"Approved","OW236"
"2023-05-19 20:00",22.8117576675328,"Approved","OW236"
"2023-05-19 21:00",22.7967542828534,"Approved","OW236"
"2023-05-19 22:00",22.785750898174,"Approved","OW236"
"2023-05-19 23:00",22.7747475134946,"Approved","OW236"
"2023-05-20 00:00",22.7657441288153,"Approved","OW236"
"2023-05-20 01:00",22.7597407441359,"Approved","OW236"
"2023-05-20 02:00",22.7517373594565,"Approved","OW236"
"2023-05-20 03:00",22.7437339747771,"Approved","OW236"
"2023-05-20 04:00",22.7587305900977,"Approved","OW236"
"2023-05-20 05:00",22.7637272054183,"Approved","OW236"
"2023-05-20 06:00",22.7677238207389,"Approved","OW236"
"2023-05-20 07:00",22.7687204360595,"Approved","OW236"
"2023-05-20 08:00",22.7797170513801,"Approved","OW236"
"2023-05-20 09:00",22.7877136667007,"Approved","OW236"
"2023-05-20 10:00",23.1137102820214,"Approved","OW236"
"2023-05-20 11:00",23.173706897342,"Approved","OW236"
"2023-05-20 12:00",23.1937035126626,"Approved","OW236"
"2023-05-20 13:00",23.2047001279832,"Approved","OW236"
"2023-05-20 14:00",23.2216967433038,"Approved","OW236"
"2023-05-20 15:00",22.9136933586244,"Approved","OW236"
"2023-05-20 16:00",22.862689973945,"Approved","OW236"
"2023-05-20 17:00",22.8456865892656,"Approved","OW236"
"2023-05-20 18:00",22.8426832045862,"Approved","OW236"
"2023-05-20 19:00",22.8266798199069,"Approved","OW236"
"2023-05-20 20:00",22.8156764352275,"Approved","OW236"
"2023-05-20 21:00",22.8056730505481,"Approved","OW236"
"2023-05-20 22:00",22.7946696658687,"Approved","OW236"
"2023-05-20 23:00",22.7926662811893,"Approved","OW236"
"2023-05-21 00:00",22.7856628965099,"Approved","OW236"
"2023-05-21 01:00",22.7866595118305,"Approved","OW236"
"2023-05-21 02:00",22.7836561271511,"Approved","OW236"
"2023-05-21 03:00",22.7946527424717,"Approved","OW236"
"2023-05-21 04:00",22.7846493577923,"Approved","OW236"
"2023-05-21 05:00",22.793645973113,"Approved","OW236"
"2023-05-21 06:00",22.7966425884336,"Approved","OW236"
"2023-05-21 07:00",22.7986392037542,"Approved","OW236"
"2023-05-21 08:00",22.7976358190748,"Approved","OW236"
"2023-05-21 09:00",22.7936324343954,"Approved","OW236"
"2023-05-21 10:00",22.796629049716,"Approved","OW236"
"2023-05-21 11:00",22.7986256650366,"Approved","OW236"
"2023-05-21 12:00",22.7956222803572,"Approved","OW236"
"2023-05-21 13:00",22.8026188956778,"Approved","OW236"
"2023-05-21 14:00",22.8166155109984,"Approved","OW236"
"2023-05-21 15:00",22.8116121263191,"Approved","OW236"
"2023-05-21 16:00",22.7976087416397,"Approved","OW236"
"2023-05-21 17:00",22.7946053569603,"Approved","OW236"
"2023-05-21 18:00",22.7906019722809,"Approved","OW236"
"2023-05-21 19:00",22.7855985876015,"Approved","OW236"
"2023-05-21 20:00",22.7815952029221,"Approved","OW236"
"2023-05-21 21:00",22.7765918182427,"Approved","OW236"
"2023-05-21 22:00",22.7755884335633,"Approved","OW236"
"2023-05-21 23:00",22.7705850488839,"Approved","OW236"
"2023-05-22 00:00",22.7645816642045,"Approved","OW236"
"2023-05-22 01:00",22.7555782795252,"Approved","OW236"
"2023-05-22 02:00",22.7535748948458,"Approved","OW236"
"2023-05-22 03:00",22.7555715101664,"Approved","OW236"
"2023-05-22 04:00",22.753568125487,"Approved","OW236"
"2023-05-22 05:00",22.7575647408076,"Approved","OW236"
"2023-05-22 06:00",22.7605613561282,"Approved","OW236"
"2023-05-22 07:00",22.7655579714488,"Approved","OW236"
"2023-05-22 08:00",22.7685545867694,"Approved","OW236"
"2023-05-22 09:00",22.77455120209,"Approved","OW236"
"2023-05-22 10:00",22.7795478174106,"Approved","OW236"
"2023-05-22 11:00",22.7745444327313,"Approved","OW236"
"2023-05-22 12:00",22.7745410480519,"Approved","OW236"
"2023-05-22 13:00",22.7695376633725,"Approved","OW236"
"2023-05-22 14:00",22.7805342786931,"Approved","OW236"
"2023-05-22 15:00",22.7785308940137,"Approved","OW236"
"2023-05-22 16:00",22.7835275093343,"Approved","OW236"
"2023-05-22 17:00",22.7815241246549,"Approved","OW236"
"2023-05-22 18:00",22.7825207399755,"Approved","OW236"
"2023-05-22 19:00",22.7845173552961,"Approved","OW236"
"2023-05-22 20:00",22.7845139706168,"Approved","OW236"
"2023-05-22 21:00",22.7855105859374,"Approved","OW236"
"2023-05-22 22:00",22.782507201258,"Approved","OW236"
"2023-05-22 23:00",22.7875038165786,"Approved","OW236"
"2023-05-23 00:00",22.7875004318992,"Approved","OW236"
"2023-05-23 01:00",22.7894970472198,"Approved","OW236"
"2023-05-23 02:00",22.7864936625404,"Approved","OW236"
"2023-05-23 03:00",22.784490277861,"Approved","OW236"
"2023-05-23 04:00",22.7874868931816,"Approved","OW236"
"2023-05-23 05:00",22.7914835085022,"Approved","OW236"
"2023-05-23 06:00",22.7924801238229,"Approved","OW236"
"2023-05-23 07:00",22.7934767391435,"Approved","OW236"
"2023-05-23 08:00",22.7934733544641,"Approved","OW236"
"2023-05-23 09:00",22.7924699697847,"Approved","OW236"
"2023-05-23 10:00",22.7934665851053,"Approved","OW236"
"2023-05-23 11:00",22.7934632004259,"Approved","OW236"
"2023-05-23 12:00",22.7954598157465,"Approved","OW236"
"2023-05-23 13:00",22.7954564310671,"Approved","OW236"
"2023-05-23 14:00",22.7974530463877,"Approved","OW236"
"2023-05-23 15:00",22.7954496617083,"Approved","OW236"
"2023-05-23 16:00",22.791446277029,"Approved","OW236"
"2023-05-23 17:00",22.7884428923496,"Approved","OW236"
"2023-05-23 18:00",22.7854395076702,"Approved","OW236"
"2023-05-23 19:00",22.7834361229908,"Approved","OW236"
"2023-05-23 20:00",22.7754327383114,"Approved","OW236"
"2023-05-23 21:00",22.756429353632,"Approved","OW236"
"2023-05-23 22:00",22.7624259689526,"Approved","OW236"
"2023-05-23 23:00",22.7594225842732,"Approved","OW236"
"2023-05-24 00:00",22.7554191995938,"Approved","OW236"
"2023-05-24 01:00",22.7584158149144,"Approved","OW236"
"2023-05-24 02:00",22.7594124302351,"Approved","OW236"
"2023-05-24 03:00",22.7644090455557,"Approved","OW236"
"2023-05-24 04:00",22.7694056608763,"Approved","OW236"
"2023-05-24 05:00",22.7724022761969,"Approved","OW236"
"2023-05-24 06:00",22.7623988915175,"Approved","OW236"
"2023-05-24 07:00",22.7693955068381,"Approved","OW236"
"2023-05-24 08:00",22.7723921221587,"Approved","OW236"
"2023-05-24 09:00",22.7813887374793,"Approved","OW236"
"2023-05-24 10:00",22.7853853527999,"Approved","OW236"
"2023-05-24 11:00",22.7793819681205,"Approved","OW236"
"2023-05-24 12:00",22.7923785834412,"Approved","OW236"
"2023-05-24 13:00",22.7973751987618,"Approved","OW236"
"2023-05-24 14:00",22.7943718140824,"Approved","OW236"
"2023-05-24 15:00",22.799368429403,"Approved","OW236"
"2023-05-24 16:00",22.7873650447236,"Approved","OW236"
"2023-05-24 17:00",22.7673616600442,"Approved","OW236"
"2023-05-24 18:00",22.7733582753648,"Approved","OW236"
"2023-05-24 19:00",22.7663548906854,"Approved","OW236"